Clermont County, Batavia, OH

4:32 PM EST on December 06, 2019 (GMT -0500)
Clermont County, Batavia

Weather History for KI69 - October, 2019

Change the Weather History Date:

Monday, October 7, 2019

  Actual Average (KLUK) Record (KLUK)
Temperature  
Mean Temperature 56 °F -  
Max Temperature 62 °F 66 °F 91 °F (2007)
Min Temperature 49 °F 45 °F 32 °F (2001)
Degree Days  
Heating Degree Days 9    
Growing Degree Days 6 (Base 50)    
Moisture  
Dew Point 54 °F    
Average Humidity 92    
Maximum Humidity 100    
Minimum Humidity 69    
Precipitation  
Precipitation 0.26 in - - ()
Sea Level Pressure  
Sea Level Pressure 30.20 in    
Wind  
Wind Speed 0 mph (NE)    
Max Wind Speed 5 mph    
Max Gust Speed -    
Visibility 9 miles    
Events Rain    
Averages and records for this station are not official NWS values.
T = Trace of Precipitation, MM = Missing Value Source: NWS Daily Summary

Daily Weather History Graph

Daily Weather History Graph

Search for Another Location

Airport or City:

Astronomy

Oct. 07, 2019 Rise Set
Actual Time 7:38 AM EDT 7:10 PM EDT
Civil Twilight 7:11 AM EDT 7:37 PM EDT
Nautical Twilight 6:40 AM EDT 8:08 PM EDT
Astronomical Twilight 6:09 AM EDT 8:39 PM EDT
Moon 4:28 PM EDT (10/7) 1:33 AM EDT (10/7)
Length of Visible Light 12h 25m
Length of Day
11h 32m
Waxing Gibbous, 69% of the Moon is Illuminated
Oct 7
Waxing Gibbous
Oct 13
Full
Oct 21
Last Quarter
Oct 27
New
Nov 4
First Quarter

Hourly Weather History & Observations

Time (EDT) Temp. Dew Point Humidity Pressure Visibility Wind Dir Wind Speed Gust Speed Precip Events Conditions
12:15 AM 58.1 °F 57.2 °F 97% 30.16 in 10.0 mi Calm Calm - N/A   Overcast
12:35 AM 58.1 °F 57.2 °F 97% 30.16 in 10.0 mi Calm Calm - N/A Rain Rain
12:59 AM 57.7 °F 56.5 °F 96% 30.16 in 7.0 mi Calm Calm - N/A Rain Heavy Rain
1:17 AM 57.2 °F 55.9 °F 96% 30.17 in 7.0 mi North 4.6 mph - N/A Rain Rain
1:35 AM 56.5 °F 55.4 °F 96% 30.16 in 7.0 mi Calm Calm - 0.01 in Rain Light Rain
1:55 AM 56.5 °F 55.6 °F 97% 30.17 in 10.0 mi Calm Calm - 0.01 in Rain Light Rain
2:15 AM 56.5 °F 56.1 °F 99% 30.18 in 7.0 mi Calm Calm - N/A Rain Light Rain
2:39 AM 56.5 °F 55.9 °F 98% 30.17 in 7.0 mi Calm Calm - N/A Rain Light Rain
2:57 AM 56.3 °F 55.9 °F 99% 30.17 in 7.0 mi Calm Calm - 0.01 in Rain Light Rain
3:15 AM 56.3 °F 56.3 °F 100% 30.16 in 7.0 mi Calm Calm - N/A Rain Rain
3:35 AM 56.3 °F 55.9 °F 99% 30.17 in 10.0 mi Calm Calm - N/A Rain Light Rain
3:55 AM 56.3 °F 55.9 °F 99% 30.17 in 7.0 mi Calm Calm - N/A Rain Rain
4:18 AM 56.3 °F 56.1 °F 99% 30.17 in 7.0 mi Calm Calm - 0.01 in Rain Light Rain
4:37 AM 56.3 °F 55.9 °F 99% 30.17 in 7.0 mi Calm Calm - 0.01 in Rain Light Rain
4:55 AM 56.1 °F 55.6 °F 98% 30.16 in 10.0 mi ESE 3.5 mph - 0.01 in Rain Rain
5:15 AM 55.9 °F 55.2 °F 97% 30.16 in 10.0 mi Calm Calm - N/A   Overcast
5:35 AM 55.9 °F 54.9 °F 96% 30.17 in 10.0 mi Calm Calm - N/A   Light Drizzle
5:58 AM 56.1 °F 54.9 °F 96% 30.19 in 10.0 mi Calm Calm - N/A Rain Rain
6:16 AM 55.8 °F 55.2 °F 98% 30.19 in 10.0 mi Calm Calm - N/A Rain Light Rain
6:35 AM 55.4 °F 54.5 °F 97% 30.19 in 10.0 mi Calm Calm - N/A   Drizzle
6:55 AM 55.0 °F 54.0 °F 96% 30.18 in 10.0 mi Calm Calm - N/A   Overcast
7:15 AM 54.5 °F 53.1 °F 95% 30.18 in 10.0 mi Calm Calm - N/A   Overcast
7:38 AM 54.1 °F 52.2 °F 93% 30.19 in 10.0 mi Calm Calm - 0.01 in   Overcast
7:56 AM 53.8 °F 52.2 °F 94% 30.18 in 10.0 mi Calm Calm - 0.01 in   Overcast
8:15 AM 54.0 °F 52.7 °F 95% 30.18 in 10.0 mi Calm Calm - N/A Rain Light Rain
8:16 AM 54.0 °F 52.7 °F 95% 30.18 in 10.0 mi Calm Calm - N/A Rain Light Rain
8:35 AM 54.1 °F 52.2 °F 93% 30.19 in 10.0 mi Calm Calm - 0.01 in   Overcast
8:55 AM 54.9 °F 51.6 °F 89% 30.20 in 10.0 mi Calm Calm - 0.02 in Rain Light Rain
9:18 AM 54.9 °F 52.0 °F 90% 30.21 in 10.0 mi Calm Calm - 0.01 in   Drizzle
9:36 AM 54.9 °F 52.9 °F 93% 30.23 in 10.0 mi Calm Calm - 0.01 in   Drizzle
9:55 AM 54.7 °F 53.1 °F 94% 30.23 in 10.0 mi Calm Calm - 0.03 in Rain Rain
10:15 AM 54.7 °F 53.6 °F 96% 30.22 in 10.0 mi Calm Calm - 0.01 in Rain Rain
10:16 AM 54.7 °F 53.6 °F 96% 30.23 in 10.0 mi Calm Calm - 0.01 in Rain Rain
10:35 AM 54.7 °F 52.9 °F 94% 30.23 in 10.0 mi Calm Calm - 0.03 in   Drizzle
10:58 AM 55.0 °F 54.1 °F 97% 30.23 in 10.0 mi Calm Calm - 0.05 in   Overcast
11:16 AM 55.4 °F 53.8 °F 94% 30.23 in 10.0 mi Calm Calm - 0.01 in   Overcast
11:35 AM 55.4 °F 53.4 °F 93% 30.23 in 10.0 mi Calm Calm - 0.02 in   Overcast
11:55 AM 55.8 °F 53.6 °F 92% 30.22 in 10.0 mi Calm Calm - 0.02 in   Scattered Clouds
12:15 PM 56.3 °F 53.8 °F 91% 30.22 in 10.0 mi Calm Calm - 0.01 in   Clear
12:38 PM 56.3 °F 54.3 °F 93% 30.21 in 10.0 mi Calm Calm - 0.01 in   Scattered Clouds
12:56 PM 56.5 °F 54.1 °F 92% 30.21 in 10.0 mi Calm Calm - 0.01 in   Scattered Clouds
1:15 PM 56.7 °F 54.1 °F 91% 30.21 in 10.0 mi Calm Calm - N/A   Scattered Clouds
1:35 PM 57.4 °F 53.4 °F 87% 30.22 in 10.0 mi Calm Calm - N/A   Scattered Clouds
1:55 PM 57.4 °F 53.8 °F 88% 30.21 in 10.0 mi Calm Calm - N/A   Mostly Cloudy
2:00 PM 57.4 °F 54.0 °F 88% 30.21 in 10.0 mi Calm Calm - 0.01 in   Mostly Cloudy
2:18 PM 57.4 °F 53.2 °F 86% 30.20 in 10.0 mi North 3.5 mph - 0.01 in   Scattered Clouds
2:36 PM 57.7 °F 53.8 °F 87% 30.20 in 10.0 mi Calm Calm - 0.01 in   Scattered Clouds
2:55 PM 58.1 °F 53.8 °F 86% 30.21 in 10.0 mi Calm Calm - 0.02 in   Mostly Cloudy
3:15 PM 58.8 °F 54.3 °F 85% 30.20 in 10.0 mi Calm Calm - N/A   Scattered Clouds
3:39 PM 59.2 °F 54.7 °F 85% 30.20 in 10.0 mi Calm Calm - N/A   Scattered Clouds
3:58 PM 59.5 °F 54.3 °F 83% 30.20 in 10.0 mi Calm Calm - N/A   Scattered Clouds
4:16 PM 59.5 °F 54.0 °F 82% 30.20 in 10.0 mi Calm Calm - 0.01 in   Scattered Clouds
4:35 PM 60.6 °F 54.5 °F 80% 30.19 in 10.0 mi Calm Calm - 0.01 in   Mostly Cloudy
4:55 PM 61.5 °F 54.7 °F 78% 30.20 in 10.0 mi Calm Calm - 0.02 in   Mostly Cloudy
5:37 PM 62.4 °F 52.9 °F 71% 30.20 in 10.0 mi Calm Calm - N/A   Scattered Clouds
5:56 PM 61.9 °F 51.4 °F 69% 30.20 in 10.0 mi Calm Calm - 0.01 in   Scattered Clouds
6:15 PM 61.3 °F 52.3 °F 72% 30.21 in 10.0 mi Calm Calm - N/A   Scattered Clouds
6:35 PM 60.4 °F 53.6 °F 78% 30.20 in 10.0 mi Calm Calm - 0.01 in   Clear
6:59 PM 59.4 °F 53.6 °F 81% 30.20 in 10.0 mi Calm Calm - 0.01 in   Clear
7:17 PM 58.1 °F 54.1 °F 87% 30.20 in 10.0 mi Calm Calm - N/A   Clear
7:36 PM 56.3 °F 53.2 °F 89% 30.21 in 10.0 mi Calm Calm - N/A   Clear
7:55 PM 54.9 °F 53.4 °F 95% 30.21 in 10.0 mi Calm Calm - N/A   Clear
8:15 PM 55.4 °F 53.6 °F 94% 30.21 in 10.0 mi Calm Calm - N/A   Clear
8:39 PM 54.1 °F 52.7 °F 95% 30.22 in 10.0 mi Calm Calm - 0.01 in   Clear
8:57 PM 53.1 °F 52.7 °F 99% 30.22 in 7.0 mi Calm Calm - 0.01 in   Clear
9:15 PM 52.9 °F 52.5 °F 99% 30.22 in 10.0 mi Calm Calm - 0.01 in   Clear
9:35 PM 52.9 °F 52.2 °F 97% 30.23 in 10.0 mi Calm Calm - 0.01 in   Clear
9:36 PM 52.9 °F 52.2 °F 97% 30.23 in 10.0 mi Calm Calm - 0.01 in   Clear
9:55 PM 52.0 °F 51.8 °F 99% 30.24 in 7.0 mi Calm Calm - 0.01 in   Clear
10:19 PM 51.8 °F 50.9 °F 97% 30.24 in 10.0 mi Calm Calm - N/A   Clear
10:37 PM 51.4 °F 50.7 °F 97% 30.25 in 10.0 mi Calm Calm - N/A   Clear
10:55 PM 51.6 °F 50.9 °F 97% 30.25 in 10.0 mi Calm Calm - N/A   Clear
11:15 PM 50.9 °F 50.5 °F 99% 30.25 in 7.0 mi Calm Calm - 0.01 in   Clear
11:35 PM 50.0 °F 49.8 °F 99% 30.25 in 5.0 mi Calm Calm - 0.01 in   Clear
11:59 PM 49.6 °F 49.3 °F 99% 30.25 in 7.0 mi Calm Calm - 0.01 in   Clear